{"data":{"norad_id":40663,"epoch":"2026-05-25T03:15:18.125280Z","epoch_age_seconds":59246,"freshness":"FRESH","line1":"1 40663U 15026A   26145.13562645 -.00000105  00000+0  00000+0 0  9998","line2":"2 40663   0.0171 336.4768 0000160 134.1688  78.0234  1.00271241 40236","mean_motion":1.00271241,"eccentricity":1.6e-5,"inclination_deg":0.0171,"raan_deg":336.4768,"arg_perigee_deg":134.1688,"mean_anomaly_deg":78.0234,"bstar":0,"rev_number":4023,"period_min":1436.1046952635,"perigee_km":35786.072826676,"apogee_km":35787.422102979,"semimajor_km":42164.884464828,"source":"CELESTRAK","updated_at":"2026-05-25T13:38:14.333749Z"}}